Location: Newark
(52.3500°N, 175.9667°E)
Time: 22:37:55
(UTC+00:00)

Altair - Pass Details

Date: 25 April 2021
Orbit: 1501 x 1683 km, 47.2° (Epoch: 05 May)

Event Time Altitude Azimuth Distance (km) Brightness Sun altitude
Rises 20:49:42 0° 276° (W) 4,842 9.6 33.9°
Reaches altitude 10° 20:52:55 10° 273° (W) 3,831 9.2 34.3°
Maximum altitude 21:02:17 56° 199° (SSW) 1,806 8.5 35.6°
Drops below altitude 10° 21:11:18 10° 124° (SE) 3,690 10.8 36.8°
Sets 21:14:22 0° 120° (ESE) 4,655 11.0 37.2°
